660  
ASUS43 KTOP 252008  
RWRKS  
 
WEATHER ROUNDUP FOR KANSAS  
NATIONAL WEATHER SERVICE GOODLAND KS  
200 PM CST SAT JAN 25 2020  
 
NOTE: "FAIR" INDICATES FEW OR NO CLOUDS BELOW 12,000 FEET WITH NO  
SIGNIFICANT WEATHER AND/OR S TO VISIBILITY
.  
 
KSZ001>006-013>018-027>032-041>047-252100-  
NORTHWEST KANSAS  
 
CITY SKY/WX TMP DP RH WIND PRES REMARKS
 
GOODLAND PTSUNNY 53 27 36 N13 29.93F  
HAYS SUNNY 38 36 92 SW5 29.97F  
HILL CITY SUNNY 43 33 68 SW5 29.95F  
RUSSELL SUNNY 36 31 82 S8 29.96F  

 
 
KSZ061>065-074>080-084>089-252100-  
SOUTHWEST KANSAS  
 
CITY SKY/WX TMP DP RH WIND PRES REMARKS
 
DODGE CITY MOSUNNY 47 34 60 NW6 29.94F  
ELKHART SUNNY 58 32 36 N12 29.93F  
GARDEN CITY CLOUDY 47 32 56 VRB6 29.93F  
GREAT BEND SUNNY 38 33 82 N7 29.98F  
LIBERAL SUNNY 52 33 48 N10 29.93F  
PRATT MOSUNNY 47 32 56 S7 29.95F  

 
 
KSZ066>073-081>083-090>101-252100-  
SOUTHEAST KANSAS  
 
CITY SKY/WX TMP DP RH WIND PRES REMARKS
 
CHANUTE MOSUNNY 38 31 76 E7 30.05F  
COFFEYVILLE SUNNY 42 33 70 E7 30.04F  
HUTCHINSON MOSUNNY 42 32 67 SE5 29.98F  
MEDICINE LODGE N/A 48 34 58 E5 29.94F  
NEWTON MOSUNNY 39 34 82 SE7 29.99F  
PARSONS SUNNY 42 33 70 VRB6 30.05F  
WICHITA INTL CLOUDY 45 32 60 S8 29.98F  
WICHITA JABRA CLOUDY 46 32 58 S7 29.98F  
WICHITA MCCONL PTSUNNY 45 32 60 SE9 29.98F  
WINFIELD SUNNY 50 31 48 SE8 29.99F  

 
 
KSZ007>012-019>026-033>040-048>060-102>105-252100-  
NORTHEAST KANSAS  
 
CITY SKY/WX TMP DP RH WIND PRES REMARKS
 
CONCORDIA CLOUDY 33 30 88 S9 30.00F  
EMPORIA PTSUNNY 32 31 96 E7 30.03F  
LAWRENCE CLOUDY 31 27 85 SE3 30.07F  
MANHATTAN CLOUDY 35 30 82 CALM 30.03F  
MARYSVILLE CLOUDY N/A N/A N/A S5 30.01F  
OLATHE IND CLOUDY 29 26 89 VRB3 30.07F  
OLATHE EXE CLOUDY 28 25 88 CALM 30.06F  
SALINA PTSUNNY 36 31 82 SE6 30.01F  
TOPEKA BILLARD CLOUDY 32 27 81 SE5 30.06F  
TOPEKA FORBES CLOUDY 31 27 85 S5 30.05F  

 
 
 
CLICK HERE TO GO TO PREVIOUS BULLETINS.

The Nexlab KS Page Main Text Page